Portada
METAR-TAF:

METAR-TAF

Aeroports :

Sallisaw, Oklahoma, Estats Units d'Amèrica

latitud: 35-26-17N, longitud: 094-48-10W, altitud: 161 m

Observació

L'informe es va fer fa 29 minuts, a les 22:35 UTC
Vent 5 kt del Nord
Temperatura 27°C
Humitat 26%
Pressió 1020 hPa
Visibilitat: 16.1 km
Cel clar

METAR: KJSV 292235Z AUTO 01005KT 10SM CLR 27/06 A3012 RMK AO2

Hora: 18:04 (23:04 UTC)


TAF: manca

Observacions i pronòstics meteorològics de més de 4000 aeroports (METAR i TAF).

Les estacions disponibles són els punts grocs i vermells al mapa.

Posi el ratolí al punt desitjat per veure el nom de l'estació.

Feu clic per veure les observacions i els pronòstics meteorològics.

Per canviar el mapa: feu clic els botons verds amb una creu de color negre per apropar; al botó verd amb un guió per allunyar la imatge; o en les fletxes verdes per a mapes adjacents.


METAR-TAF: